Regional Weather Roundup
Issued by NWS

Home | Current Version | Previous Version | Text Only | Print | Product List | Glossary On
Versions: 1 2 3 4 5 6 7 8 9 10 11 12 13 14 15 16 17 18 19 20 21 22 23 24 25 26 27 28 29 30 31 32 33 34 35 36 37 38 39 40 41 42 43 44 45 46 47 48 49 50
000
ASUS45 KABQ 260810
RWRNM
NEW MEXICO REGIONAL WEATHER ROUNDUP
NATIONAL WEATHER SERVICE ALBUQUERQUE NM
200 AM MDT TUE JUL 26 2016

NOTE: "FAIR" MEANS FEW OR NO CLOUDS BELOW 12,000 FEET AGL WITH NO
       SIGNIFICANT WEATHER OR OBSTRUCTIONS TO VISION.

      THIS PRODUCT IS RELEASED AS TWO VERSIONS.  ONE VERSION NEAR
      THE TOP OF THE HOUR CONTAINING PRELIMINARY DATA FROM ALBUQUERQUE
      AND OTHER STATIONS.  A FINAL VERSION WITH ADDITIONAL DATA IS
      ISSUED ABOUT 10 MINUTES AFTER THE HOUR.

NMZ501-503-504-510>518-260900-
NORTHWEST PLATEAU/NORTHCENTRAL MOUNTAINS

CITY           SKY/WX    TMP DP  RH WIND       PRES   REMARKS
FARMINGTON     FAIR      75  51  43 E7        30.20F
LOS ALAMOS     FAIR      63  55  74 SW10G16   30.41S
SANTA FE       FAIR      64  56  75 SE12G23   30.34S
TAOS           FAIR      64  39  39 SE12      30.39S
ANGEL FIRE     FAIR      46  44  96 W3        30.51F

$$
NMZ402-403-502-505>509-260900-
WESTCENTRAL MOUNTAINS/SOUTHWEST MOUNTAINS

CITY           SKY/WX    TMP DP  RH WIND       PRES   REMARKS
GALLUP         MOCLDY    66  52  60 S3        30.30S
GRANTS         DRIZZLE   67  55  65 SE17G24   30.37R
SILVER CITY    FAIR      73  54  51 N12       30.19S

$$
NMZ407-409-411-412-260900-
SOUTHERN DESERTS

CITY           SKY/WX    TMP DP  RH WIND       PRES   REMARKS
LORDSBURG      MOCLDY    73  57  56 NW10      30.10S
DEMING         MOCLDY    83  52  34 N13G21    30.09S
LAS CRUCES     CLOUDY    82  50  32 N17G25    30.12S
HOLLOMAN AFB   CLOUDY    76  62  61 N24G31    30.12R
ALAMOGORDO     MOCLDY    79  55  44 E12G18    30.13R
T OR C         CLOUDY    73  60  63 NE8       30.20R

$$
NMZ519>523-260900-
CENTRAL VALLEYS/CENTRAL HIGHLANDS

CITY           SKY/WX    TMP DP  RH WIND       PRES   REMARKS
ALBUQUERQUE    CLOUDY    72  58  61 E18G24    30.26F
DOUBLE EAGLE   FAIR      66  60  78 SE9       30.30F
MORIARTY ARPT  MOCLDY    65  55  69 SE7       30.37F
CLINES CORNERS FAIR      59  57  93 SE8       30.40F
BELEN          MOCLDY    74  54  50 W8        30.25S
SOCORRO        FAIR      74  56  53 E8        30.23S

$$
NMZ524>526-539-540-260900-
SOUTHCENTRAL MOUNTAINS

CITY           SKY/WX    TMP DP  RH WIND       PRES   REMARKS
RUIDOSO          N/A     64  55  72 SW6       30.40S

$$
NMZ527>531-260900-
NORTHEAST HIGHLANDS/NORTHEAST PLAINS

CITY           SKY/WX    TMP DP  RH WIND       PRES   REMARKS
LAS VEGAS      FAIR      58  55  90 SW3       30.38F
RATON          FAIR      57  53  86 E8        30.33F
CLAYTON        FAIR      66  60  81 W10       30.22F

$$
NMZ532>537-260900-
EASTCENTRAL PLAINS

CITY           SKY/WX    TMP DP  RH WIND       PRES   REMARKS
TUCUMCARI      FAIR      69  64  84 NW10      30.16R
CANNON AFB     FAIR      67  63  89 SW9       30.17F
CLOVIS AIRPORT FAIR      70  57  64 SW12      30.17F

$$
NMZ028-029-538-260900-
SOUTHEAST PLAINS

CITY           SKY/WX    TMP DP  RH WIND       PRES   REMARKS
ROSWELL        MOCLDY    72  61  68 N16       30.16S
ARTESIA        DRIZZLE   73  63  68 NW16G26   30.17R
CARLSBAD       CLOUDY    77  59  53 NW21      30.11R
HOBBS          FAIR      73  61  64 N14       30.13S


$$




USA.gov is the U.S. government's official web portal to all federal, state and local government web resources and services.